Other Public Products
Issued by NWS Grand Forks, ND

Home | Current Version | Previous Version | Text Only | Print | Product List | Glossary Off
Versions: 1 2 3 4 5 6 7 8 9 10 11 12 13 14 15 16 17 18 19 20 21 22 23 24 25 26 27 28 29 30 31 32 33 34 35 36 37 38 39 40 41 42 43 44 45 46 47 48 49 50

000
FPUS83 KFGF 071610
OPUFGF
PRAIRIE TO PINES WEATHER ROUNDUP
NATIONAL WEATHER SERVICE EASTERN NORTH DAKOTA/GRAND FORKS ND
1100 AM CDT TUE JUL 07 2015

 **SATELLITE DATA USED TO AUGMENT SKY COVER AT AUTOMATED STATIONS**
 *****  WEATHER ACROSS EASTERN NORTH DAKOTA  *****

CITY           SKY/WX    TMP DP  RH WIND       PRES   REMARKS
GRAND FORKS    SUNNY     65  45  48 SW7       30.17F
GRAND FORKS AF SUNNY     67  47  49 W3        30.17F
GRAND CITY NWS   N/A     66 N/A N/A W7          N/A
BUXTON         NOT AVBL
DEVILS LAKE    SUNNY     64  46  52 SW8       30.15F
FARGO          SUNNY     65  45  48 S5        30.19F
WAHPETON ARPT  SUNNY     64  41  42 CALM      30.21S
$$

 *****  WEATHER ACROSS CENTRAL AND WESTERN NORTH DAKOTA  *****

CITY           SKY/WX    TMP DP  RH WIND       PRES   REMARKS
JAMESTOWN      SUNNY     64  44  48 CALM      30.17F
BISMARCK       SUNNY     66  53  63 SE9       30.15F
MINOT          SUNNY     66  49  54 S10       30.11F
MINOT AFB      SUNNY     69  55  60 S13       30.10F
GARRISON         N/A     65  54  67 S9        30.12F
WILLISTON      CLOUDY    68  54  60 S9        30.08F HAZE
DICKINSON      MOSUNNY   67  54  63 S12       30.10F
HETTINGER      MOSUNNY   66  56  70 SE9       30.12F HAZE
$$

 *****  OTHER OBSERVATIONS NORTHEAST NORTH DAKOTA  *****

CITY           SKY/WX    TMP DP  RH WIND       PRES   REMARKS
WALHALLA       FAIR      66  50  55 MISG      30.14F
LANGDON        FAIR      66  50  55 SW12      30.16F
CAVALIER       FAIR      66  50  55 SW7       30.15F
GRAFTON        FAIR      66  46  48 SW7       30.17F
CANDO          FAIR      66  46  48 W12       30.15F
FORT TOTTEN    NOT AVBL
ROLLA          FAIR      63  48  59 SW16      30.15F
RUGBY          NOT AVBL
 ***** THE ABOVE OBSERVATIONS ARE NON NWS ARE NOT QUALITY
        CONTROLLED AND MAY MIS-REPORT RAIN FOR SNOW...
$$

 *****  OTHER OBSERVATIONS SOUTHEAST NORTH DAKOTA *****

CITY           SKY/WX    TMP DP  RH WIND       PRES   REMARKS
COOPERSTOWN    NOT AVBL
VALLEY CITY    FAIR      63  45  51 S3        30.19F
OAKES            N/A     64  48  55 E6        30.20S
GWINNER        FAIR      64  45  48 S5        30.21S
SHEYENNE NWR     N/A     67  46  45 CALM      29.95S
BUFFALO        NOT AVBL
WYNDMERE         N/A     64  46  52 E1          N/A
 ***** THE ABOVE OBSERVATIONS ARE NON NWS ARE NOT QUALITY
       CONTROLLED AND MAY MIS-REPORT RAIN FOR SNOW...
$$

  *****  WEATHER ACROSS NORTHERN MINNESOTA  *****

CITY           SKY/WX    TMP DP  RH WIND       PRES   REMARKS
FLAG ISLAND    SUNNY     63  45  51 NW7       30.14F
WARROAD        SUNNY     64  52  63 SW8       30.16F
ROSEAU         SUNNY     66  52  59 W9        30.16F
HALLOCK        SUNNY     66  48  52 SW10      30.16F
THF RVR FALLS  SUNNY     63  46  55 W8        30.19F
HALSTAD        NOT AVBL
FOSSTON        SUNNY     63  46  55 W3        30.20S
BAUDETTE       SUNNY     65  48  54 NW7       30.16S
WASKISH        SUNNY     64  46  52 W5        30.17S
CROOKSTON      SUNNY     64  48  55 W6        30.19F
$$
  *****  WEATHER ACROSS CENTRAL AND WEST MINNESOTA  *****

CITY           SKY/WX    TMP DP  RH WIND       PRES   REMARKS
BEMIDJI        SUNNY     64  45  51 N9        30.18F
PARK RAPIDS    SUNNY     65  41  41 VRB3      30.19S
WADENA         SUNNY     63  41  45 NW6       30.20S
DETROIT LAKES  SUNNY     63  41  45 N3        30.21F
MOORHEAD       SUNNY     63  45  51 CALM      30.20F
FERGUS FALLS   SUNNY     64  45  48 N6        30.20F
ELBOW LAKE     FAIR      63  44  49 N3        30.20F
MORRIS MN      SUNNY     64  46  52 N6        30.20S
STAPLES        SUNNY     63  43  48 N5        30.20S
WHEATON        SUNNY     63  45  51 CALM      30.23S
$$
  *****  WEATHER ELSEWHERE ACROSS MINNESOTA  *****

CITY           SKY/WX    TMP DP  RH WIND       PRES   REMARKS
DULUTH         MOSUNNY   64  44  48 N7G17     30.15S
INTRNTL FALLS  SUNNY     67  43  41 N9        30.15S
ELY            MOSUNNY   63  43  48 NW8       30.14S
CLOQUET        MOSUNNY   63  43  48 N6        30.16S
BRAINERD       MOSUNNY   64  45  49 NE7       30.19S
HIBBING        SUNNY     65  43  44 NW13G18   30.16S
ALEXANDRIA     SUNNY     64  43  46 N8        30.22S
SAINT CLOUD    MOSUNNY   63  44  50 N7        30.19S
MINNEAPOLIS    MOSUNNY   64  45  49 N14       30.16F
$$

  *****  WEATHER ACROSS SOUTH DAKOTA  *****

CITY           SKY/WX    TMP DP  RH WIND       PRES   REMARKS
SIOUX FALLS    MOSUNNY   62  49  62 NE13G21   30.21F
BROOKINGS      SUNNY     59  45  58 NE10G16   30.23S
WATERTOWN      SUNNY     61  43  51 SE7       30.21S
HURON          SUNNY     63  48  58 E5        30.21S
SISSETON         N/A     64  44  48 SE7       30.20F
ABERDEEN       SUNNY     64  48  56 SE7       30.20F
MITCHELL       SUNNY     65  50  58 E8        30.22S
PIERRE         SUNNY     67  56  67 SE16      30.16F
MOBRIDGE       SUNNY     68  54  60 SE16      30.15F
RAPID CITY     MOSUNNY   70  58  65 S13       30.13F
$$

  *****  SOME WEATHER IN NEARBY STATES *****

CITY           SKY/WX    TMP DP  RH WIND       PRES   REMARKS
GLASGOW MT     SUNNY     68  52  56 VRB5      30.04F
GREAT FALLS MT PTSUNNY   62  50  64 W9        30.15R
CHEYENNE WY    LGT RAIN  54  52  93 S14G20    30.24S FOG
SCOTTSBLUFF NE CLOUDY    64  53  67 SE9       30.19F HAZE
OMAHA NE       MOSUNNY   66  48  52 N20       30.15F
DES MOINES IA  MOSUNNY   68  53  58 NE12      30.10S
DAVENPORT IA   MOSUNNY   69  58  67 N13       30.04R HAZE
CHICAGO IL     CLOUDY    64  49  57 NE20G29   30.00R
EAU CLAIRE WI  CLOUDY    63  44  50 N12       30.13R
LA CROSSE WI   CLOUDY    65  46  50 N13       30.11S
$$

  *****  SOME NATIONAL WEATHER *****

CITY           SKY/WX    TMP DP  RH WIND       PRES   REMARKS
LA GUARDIA NY  PTSUNNY   85  72  65 S17       30.00F HX  91
RALEIGH NC     MOSUNNY   86  72  62 S6        30.13S HX  92
ATLANTA GA     MOSUNNY   84  70  62 W7        30.19S
NEW ORLEANS LA MOSUNNY   89  74  60 S10       30.13S HX  98
OKLAHOMA CITY  CLOUDY    77  71  82 NE9       29.99F
ALBUQUERQUE NM MOSUNNY   70  56  61 E8        30.23F
SALT LAKE CITY MOSUNNY   76  55  48 SE8       30.07S
LOS ANGELES CA CLOUDY    64  60  87 SW5       30.02R FOG
BOISE ID       PTSUNNY   82  49  31 SE7       30.00R
SEATTLE WA     CLOUDY    61  53  75 SW5       30.07F
$$

*** WEATHER ACROSS MANITOBA...SASKATCHEWAN AND ONTARIO ***
                ***ONTARIO***

CITY           SKY/WX    TMP DP  RH WIND       PRES   REMARKS
GERALDTON      MOSUNNY   63  43  48 NW13G22   30.00S
THUNDER BAY    MOSUNNY   66  43  42 N10G18    30.07S
SIOUX LOOKOUT  MOSUNNY   66  45  45 NW12      30.10S
TORONTO        PTSUNNY   82  70  65 S14G23    29.83F
BIG TROUT LK   MOSUNNY   68  52  56 W10G17    29.88R
PICKLE LAKE    MOSUNNY   66  48  52 W9        30.01S
DRYDEN         SUNNY     64  43  45 W8        30.12S
KENORA         MOSUNNY   64  45  48 W8        30.14S
$$
                *** MANITOBA***

CITY           SKY/WX    TMP DP  RH WIND       PRES   REMARKS
BRANDON        PTSUNNY   66  52  59 SW12      30.10F
DAUPHIN        SUNNY     70  48  46 SW16G23   30.01F
ISLAND LAKE    MOSUNNY   70  48  46 SW10G17   29.90F
PILOT MOUND      N/A     64  50  59 SW13        N/A
THE PAS        CLOUDY    64  50  59 W12       29.88S SMOKE
THOMPSON         N/A     63  52  67 W15G24    29.74S SMOKE
WINNIPEG       MOSUNNY   66  52  59 SW12      30.12F
LYNN LAKE      CLOUDY    50  45  81 N12G17    29.86R
CHURCHILL      CLOUDY    46  43  87 N14       29.69R
GILLAM           N/A     61  52  72 SW12G20   29.69F SMOKE
$$
                ***SASKATCHEWAN***

CITY           SKY/WX    TMP DP  RH WIND       PRES   REMARKS
ESTEVAN        NOT AVBL
KINDERSLEY     MOSUNNY   64  54  68 NW12G20   30.05R
LLOYDMINSTER   CLOUDY    50  43  76 NW9G18    30.12R
PRINCE ALBERT  PTSUNNY   59  52  77 N12G18    29.99S SMOKE
REGINA         PTSUNNY   70  54  56 SW10      30.02F


USA.gov is the U.S. government's official web portal to all federal, state and local government web resources and services.